Retour au catalogue

FENGYUN 1C DEB

ActifSSO
NORAD 30657·DEBRIS·🇨🇳 China

Lancé May 10, 1999 depuis Taiyuan Satellite Launch Center

Loading…

Prochains Passages (prochaines 24 heures)

TLE

FraisSource: Space-Track

Époque: Sep 14, 2026, 06:12 UTC

1 30657U 99025APP 26257.25872034  .00003753  00000-0  11620-2 0  9999
2 30657  98.8422   9.1931 0015939 243.2473 146.7513 14.41755028 11973

Suivez FENGYUN 1C DEB en temps réel avec AllMySat

Download on the App Store